Location: Stara Lesna
(49.1528°N, 20.2911°E)
Time: 08:32:15
(UTC+02:00)

BREEZE-M DEB (TANK) - Visible Passes

Search period start: 20 October 2020 00:00
Search period end: 29 October 2020 23:00
Orbit: 434 x 13231 km, 46.0° (Epoch: 18 October)

Date Brightness Start Highest point End Pass type
(mag) Time Alt. Az. Time Alt. Az. Time Alt. Az.
20 Oct 9.4 06:33:57 10° SSE 08:03:07 42° ESE 08:53:29 10° ENE visible
21 Oct 7.2 18:16:02 10° WNW 18:46:13 31° WSW 18:55:30 10° SSW visible
22 Oct 10.1 05:03:54 10° ESE 06:06:14 23° E 06:48:54 10° ENE visible
22 Oct 7.8 19:47:12 10° WNW 19:56:41 13° W 20:02:34 10° WSW visible
23 Oct 9.6 05:54:57 10° SSE 07:19:41 38° ESE 08:11:36 10° ENE visible
24 Oct 7.3 17:28:09 10° WNW 18:06:31 37° WSW 18:16:43 10° S visible
25 Oct 10.4 03:31:04 10° ESE 04:24:43 19° E 05:04:00 10° ENE visible
25 Oct 7.8 17:59:39 10° WNW 18:17:23 18° W 18:25:41 10° SW visible
26 Oct 9.9 04:16:44 10° SE 05:36:37 34° E 06:29:16 10° ENE visible
27 Oct 9.4 05:19:38 10° S 06:53:11 50° ESE 07:48:41 10° ENE visible
28 Oct 10.6 03:00:56 10° ESE 03:43:36 16° E 04:17:09 10° ENE visible
28 Oct 7.8 17:12:06 10° WNW 17:37:58 23° W 17:47:46 10° SW visible
29 Oct 10.1 03:39:26 10° SE 04:53:57 30° E 05:46:21 10° ENE visible
